This demonstration page uses our WeatherBlox Daily Observations layout. Learn more.

Left ArrowRight Arrow

Hourly Observations for September 7, 2018

Temp ( °F °C ) Dew Point ( °F °C ) Humidity (%) Winds ( mph kmh ) Pressure ( in mb ) Visibility ( mi km ) Precip ( " mm )
12:11 am 00:11 Cloudy 67 19.4 64 17.8 91 91 E 6 9 30.21 1023 10 16 0.00 0.00
12:53 am 00:53 Cloudy 67 19.4 64 17.8 91 91 ENE 5 7 30.22 1024 10 16 0.00 0.00
1:53 am 01:53 Cloudy 66 18.9 63 17.2 90 90 ENE 6 9 30.22 1024 10 16 0.00 0.00
2:53 am 02:53 Cloudy 66 18.9 63 17.2 90 90 ENE 6 9 30.22 1023 10 16 0.00 0.00
3:53 am 03:53 Cloudy 65 18.3 63 17.2 93 93 ENE 7 11 30.21 1023 10 16 0.00 0.00
4:44 am 04:44 Cloudy 64 18 63 17 94 94 ENE 7 11 30.18 1022 10 16 0.00 0.00
4:53 am 04:53 Cloudy 64 17.8 63 17.2 96 96 ENE 9 15 30.20 1023 10 16 0.00 0.00
5:53 am 05:53 Cloudy 64 17.8 62 16.7 93 93 ENE 7 11 30.20 1023 10 16 0.00 0.00
6:53 am 06:53 Cloudy 64 17.8 63 17.2 96 96 NE 7 11 30.20 1023 10 16 0.00 0.00
7:00 am 07:00 Cloudy 64 18 63 17 94 94 NE 7 11 30.18 1022 10 16 0.00 0.00
7:23 am 07:23 Cloudy with Mist and Fog 64 17.8 63 17.2 96 96 NE 7 11 30.15 1021 2 3 0.00 0.00
7:53 am 07:53 Cloudy with Mist and Fog 63 17.2 63 17.2 100 100 NE 9 15 30.20 1023 3 4 0.00 0.00
8:02 am 08:02 Cloudy with Mist and Fog 64 17.8 63 17.2 96 96 ENE 8 13 30.18 1022 3 5 0.00 0.00
8:53 am 08:53 Cloudy 65 18.3 63 17.2 93 93 NE 9 15 30.20 1023 8 13 0.00 0.00
9:07 am 09:07 Cloudy 65 18.3 63 17.2 93 93 NE 7 11 30.18 1022 8 13 0.00 0.00
9:53 am 09:53 Cloudy 66 18.9 63 17.2 90 90 NNE 9 15 30.21 1023 10 16 0.00 0.00
10:53 am 10:53 Cloudy 66 18.9 63 17.2 90 90 ENE 8 13 30.20 1023 10 16 0.00 0.00
11:39 am 11:39 Cloudy with Mist and Fog 67 19.4 63 17.2 87 87 NE 10 17 30.18 1022 2 3 0.00 0.00
11:53 am 11:53 Cloudy 67 19.4 63 17.2 87 87 NE 9 15 30.21 1023 10 16 0.00 0.00
12:20 pm 12:20 Cloudy 70 21 63 17 78 78 NE 13 20 30.15 1021 10 16 0.00 0.00
12:53 pm 12:53 Cloudy 72 22.2 62 16.7 71 71 ENE 13 20 30.19 1022 10 16 0.00 0.00
1:53 pm 13:53 Mostly Cloudy 72 22.2 62 16.7 71 71 NE 14 22 30.19 1022 10 16 0.00 0.00
2:53 pm 14:53 Cloudy 70 21.1 62 16.7 76 76 NE 9 15 30.18 1022 10 16 0.00 0.00
3:53 pm 15:53 Cloudy 67 19.4 63 17.2 87 87 ENE 14 22 30.18 1022 10 16 0.00 0.00
4:14 pm 16:14 Cloudy 66 18.9 63 17.2 90 90 NE 12 19 30.15 1021 9 14 0.00 0.00
4:27 pm 16:27 Cloudy with Mist and Fog 66 18.9 63 17.2 90 90 ENE 14 22 30.15 1021 6 10 0.00 0.00
4:42 pm 16:42 Cloudy with Mist and Fog 66 18.9 63 17.2 90 90 NE 12 19 30.15 1021 5 8 0.00 0.00
4:53 pm 16:53 Cloudy 66 18.9 63 17.2 90 90 ENE 13 20 30.18 1022 8 13 0.00 0.00
5:27 pm 17:27 Cloudy 66 18.9 62 16.7 87 87 ENE 13 20 30.15 1021 10 16 0.00 0.00
5:53 pm 17:53 Cloudy 66 18.9 62 16.7 87 87 ENE 14 22 30.17 1022 10 16 0.00 0.00
6:46 pm 18:46 Cloudy 64 18 63 17 94 94 ENE 10 17 30.15 1021 10 16 0.00 0.00
6:53 pm 18:53 Cloudy 65 18.3 62 16.7 90 90 ENE 12 19 30.17 1022 10 16 0.00 0.00
7:53 pm 19:53 Cloudy 64 17.8 62 16.7 93 93 ENE 7 11 30.18 1022 9 14 0.00 0.00
8:05 pm 20:05 Cloudy with Mist and Fog 63 17.2 62 16.7 97 97 ENE 8 13 30.15 1021 4 6 0.00 0.00
8:53 pm 20:53 Cloudy with Light Rain 63 17.2 62 16.7 97 97 ENE 5 7 30.20 1023 3 5 0.02 0.51
9:34 pm 21:34 Cloudy with Mist and Fog 63 17 63 17 100 100 NE 8 13 30.18 1022 4 6 0.00 0.00
9:53 pm 21:53 Cloudy 62 16.7 61 16.1 96 96 ENE 7 11 30.21 1023 9 14 0.02 0.51
10:53 pm 22:53 Cloudy 62 16.7 61 16.1 96 96 NE 9 15 30.21 1023 10 16 0.00 0.03
11:19 pm 23:19 Cloudy 63 17 61 16 94 94 ENE 8 13 30.18 1022 10 16 0.00 0.00
11:53 pm 23:53 Cloudy 62 16.7 60 15.6 93 93 NE 9 15 30.20 1023 10 16 0.00 0.00

Powered by AerisWeather